Location: Bonny Doon Airfield
(37.0704°N, 122.1252°W)
Time: 10:34:33
(UTC-07:00)

Vanguard 1 Rocket - Visible Passes

Search period start: 18 June 2018 00:00
Search period end: 28 June 2018 00:00
Orbit: 653 x 4224 km, 34.3° (Epoch: 18 June)

Date Brightness Start Highest point End Pass type
(mag) Time Alt. Az. Time Alt. Az. Time Alt. Az.
18 Jun 10.6 01:57:48 10° WSW 02:00:47 16° WSW 02:00:47 16° WSW visible
18 Jun 8.8 22:19:34 10° W 22:26:55 56° SSW 22:35:32 24° SE visible
19 Jun 10.1 00:45:11 10° W 00:52:44 29° SW 00:52:44 29° SW visible
19 Jun 8.3 21:09:14 10° W 21:15:20 64° S 21:26:59 10° ESE visible
19 Jun 9.5 23:33:47 10° W 23:42:08 38° SSW 23:44:48 35° S visible
20 Jun 8.9 22:23:02 10° W 22:30:06 46° SSW 22:36:58 26° SE visible
21 Jun 10.3 00:49:33 10° WSW 00:54:12 20° SW 00:54:12 20° SW visible
21 Jun 8.4 21:12:36 10° W 21:18:33 56° SSW 21:29:14 11° ESE visible
21 Jun 9.8 23:37:37 10° W 23:45:20 29° SSW 23:46:28 29° SSW visible
22 Jun 9.2 22:26:36 10° W 22:33:19 37° SSW 22:38:47 25° SSE visible
23 Jun 10.6 00:54:54 10° WSW 00:56:01 12° SW 00:56:01 12° SW visible
23 Jun 8.5 21:16:04 10° W 21:21:47 46° SSW 21:31:10 12° SE visible
23 Jun 10.0 23:41:52 10° WSW 23:48:25 21° SSW 23:48:25 21° SSW visible
24 Jun 9.4 22:30:23 10° WSW 22:36:35 28° SSW 22:40:52 22° S visible
25 Jun 8.8 21:19:36 10° W 21:25:02 36° SSW 21:33:22 12° SE visible
25 Jun 10.3 23:47:04 10° WSW 23:50:37 14° SW 23:50:37 14° SW visible
26 Jun 9.7 22:34:34 10° WSW 22:39:53 20° SSW 22:43:10 17° S visible
27 Jun 9.1 21:23:21 10° WSW 21:28:19 26° SSW 21:35:45 11° SSE visible
